Weather History for Kinloss, United Kingdom

Change the Weather History Date:

Sunday, October 21, 2012

  Actual Average Record
Temperature  
Mean Temperature 50 °F -  
Max Temperature 60 °F 49 °F 60 °F (1998)
Min Temperature 39 °F 38 °F 28 °F (1997)
Degree Days  
Heating Degree Days 16    
Moisture  
Dew Point 42 °F    
Average Humidity 85    
Maximum Humidity 100    
Minimum Humidity 49    
Precipitation  
Precipitation 0.00 in 0.08 in - ()
Sea Level Pressure  
Sea Level Pressure 30.10 in    
Wind  
Wind Speed 2 mph ()    
Max Wind Speed 8 mph    
Max Gust Speed -    
Visibility 7.4 miles    
Events      
Averages and records for this station are not official NWS values.
T = Trace of Precipitation, MM = Missing Value Source: Averaged Metar Reports

Daily Weather History Graph

Daily Weather History Graph

Search for Another Location

Airport:

Trip Planner

Search our weather history database for the weather conditions in past years. The results will help you decide how hot, cold, wet, or windy it might be!

Date:

Astronomy

Oct. 21, 2012 Rise Set
Actual Time 8:02 AM BST 5:53 PM BST
Civil Twilight 7:22 AM BST 6:33 PM BST
Nautical Twilight 6:37 AM BST 7:18 PM BST
Astronomical Twilight 5:52 AM BST 8:03 PM BST
Moon 2:42 PM BST (10/21) 11:06 PM BST (10/21)
Length of Visible Light 11h 11m
Length of Day
9h 51m
Waxing Crescent, 42% of the Moon is Illuminated
Oct 21
Waxing Crescent
Oct 22
First Quarter
Oct 29
Full
Nov 7
Last Quarter
Nov 13
New

Hourly Weather History & Observations

Time (BST) Temp. Windchill Dew Point Humidity Pressure Visibility Wind Dir Wind Speed Gust Speed Precip Events Conditions
12:50 AM 43 °F - 42 °F 93% 30.01 in 25 mi South 1.2 mph - -   Mostly Cloudy
12:50 AM 42.8 °F - 41.0 °F 93% 30.01 in 6.2 mi South 1.2 mph - N/A   Mostly Cloudy
1:50 AM 42.8 °F - 41.0 °F 93% 30.01 in 6.2 mi North 1.2 mph - N/A   Overcast
2:50 AM 42.8 °F - 41.0 °F 93% 30.01 in 6.2 mi North 1.2 mph - N/A   Mostly Cloudy
3:50 AM 43 °F - 42 °F 92% 30.03 in 19 mi Calm Calm - -   Overcast
3:50 AM 42.8 °F - 41.0 °F 93% 30.01 in 6.2 mi Calm Calm - N/A   Overcast
4:50 AM 41.0 °F - 39.2 °F 93% 30.01 in 6.2 mi East 1.2 mph - N/A   Overcast
5:50 AM 39.2 °F - 39.2 °F 100% 30.04 in 6.2 mi WSW 1.2 mph - N/A   Overcast
6:50 AM 40 °F - 39 °F 97% 30.06 in 22 mi West 2.3 mph - -  
6:50 AM 41.0 °F - 39.2 °F 93% 30.04 in 6.2 mi West 2.3 mph - N/A   Overcast
7:50 AM 39.2 °F 37.0 °F 37.4 °F 93% 30.06 in 6.2 mi WNW 3.5 mph - N/A   Overcast
8:50 AM 41.0 °F 38.0 °F 39.2 °F 93% 30.06 in 6.2 mi West 4.6 mph - N/A   Mostly Cloudy
9:50 AM 50.0 °F - 44.6 °F 82% 30.09 in 6.2 mi SW 6.9 mph - N/A   Mostly Cloudy
10:50 AM 50.0 °F - 42.8 °F 76% 30.09 in 6.2 mi SSW 8.1 mph - N/A   Mostly Cloudy
11:50 AM 53.6 °F - 46.4 °F 77% 30.12 in 6.2 mi SSW 6.9 mph - N/A   Partly Cloudy
12:50 PM 56 °F - 46 °F 59% 30.12 in 25 mi SW 5.8 mph - -   Scattered Clouds
12:50 PM 55.4 °F - 46.4 °F 72% 30.12 in 6.2 mi SW 5.8 mph - N/A   Partly Cloudy
1:50 PM 55.4 °F - 48.2 °F 77% 30.12 in 6.2 mi NW 4.6 mph - N/A   Scattered Clouds
2:50 PM 59.0 °F - 48.2 °F 67% 30.12 in 6.2 mi NE 2.3 mph - N/A   Mostly Cloudy
3:50 PM 60 °F - 46 °F 49% 30.14 in 4 mi West 4.6 mph - -   Light Haze
3:50 PM 59.0 °F - 46.4 °F 63% 30.12 in 4.3 mi West 4.6 mph - N/A   Haze
4:50 PM 55.4 °F - 48.2 °F 77% 30.12 in 6.2 mi ENE 2.3 mph - N/A   Unknown
5:50 PM 51.8 °F - 46.4 °F 82% 30.15 in 6.2 mi ENE 3.5 mph - N/A   Unknown
6:50 PM 46 °F - 43 °F 86% 30.18 in 19 mi South 2.3 mph - -  
6:50 PM 46.4 °F - 42.8 °F 87% 30.15 in 6.2 mi South 2.3 mph - N/A   Unknown
7:50 PM 41.0 °F - 39.2 °F 93% 30.18 in 6.2 mi SE 2.3 mph - N/A   Unknown
8:50 PM 39.2 °F 37.0 °F 37.4 °F 93% 30.18 in 6.2 mi SE 3.5 mph - N/A   Unknown
9:50 PM 39 °F - 38 °F 95% 30.22 in 19 mi WSW 3.5 mph - -  
9:50 PM 39.2 °F 37.0 °F 37.4 °F 93% 30.21 in 6.2 mi WSW 3.5 mph - N/A   Unknown
10:50 PM 41.0 °F 37.1 °F 39.2 °F 93% 30.21 in 6.2 mi West 5.8 mph - N/A   Unknown
11:50 PM 41.0 °F 36.4 °F 39.2 °F 93% 30.24 in 6.2 mi WSW 6.9 mph - N/A   Unknown